Regional Weather Roundup
Issued by NWS Wakefield, VA

Home | Current Version | Previous Version | Graphics & Text | Print | Product List | Glossary On
Versions: 1 2 3 4 5 6 7 8 9 10 11 12 13 14 15 16 17 18 19 20 21 22 23 24 25 26 27 28 29 30 31 32 33 34 35 36 37 38 39 40 41 42 43 44 45 46 47 48 49 50
000
ASUS41 KAKQ 200810
RWRAKQ

REGIONAL WEATHER ROUNDUP
NATIONAL WEATHER SERVICE WAKEFIELD VA
400 AM EDT WED AUG 20 2014

Note: "fair" indicates few or no clouds below 12,000 feet with no
significant weather and/or obstructions to visibility. * = Denotes
station may not report precipitation (e.g., rain,snow,etc.),
thunder or fog.

VAZ042-051-052>054-056-200900-
NORTHERN VIRGINIA

CITY           SKY/WX    TMP DP  RH WIND       PRES   REMARKS
WASH NATIONAL  PTCLDY    73  63  70 S3        29.92F
DULLES         PTCLDY    70  67  90 CALM      29.92S
FORT BELVOIR   PTCLDY    66  66 100 CALM      29.92F
QUANTICO       PTCLDY    74  68  81 SE7       29.92S
FREDERICKSBRG* PTCLDY    69  69 100 CALM      29.91S FOG
STAFFORD*      PTCLDY    67  67 100 CALM      29.96S FOG
WARRENTON      CLOUDY    71  71 100 CALM      29.91F FOG
CULPEPER*      PTCLDY   N/A N/A N/A CALM      29.92F FOG
MANASSAS*      PTCLDY    72  72 100 CALM      29.92S
LEESBURG*      CLOUDY    72  72 100 CALM      29.93S
WINCHESTER       N/A     68  66  94 CALM      29.92S FOG
$$

VAZ048-049-060>072-079>083-200900-
CENTRAL AND SOUTH CENTRAL VIRGINIA...AND NORTH CENTRAL NORTH CAROLINA

CITY           SKY/WX    TMP DP  RH WIND       PRES   REMARKS
RICHMOND       CLEAR     71  69  93 N5        29.91R
CHESTERFIELD*  SUNNY    N/A N/A N/A NE3       29.92S
HANOVER        FOG       68  68 100 CALM      29.94R VSB 1/2
TAPPAHANNOCK*  CLEAR     67  64  93 CALM      29.92S FOG
CHARLOTTSVILLE CLOUDY    71  70  96 CALM      29.93R
ORANGE*        FOG       70  68  94 CALM      29.94S VSB 1
LOUISA*        CLEAR     70  70 100 CALM      29.92S FOG
FARMVILLE*     CLOUDY    72  72 100 CALM        N/A  FOG
SOUTH HILL*    MOCLDY    72  72 100 CALM      29.96S FOG
ROANOKE RAPIDS FOG       68  68 100 CALM      29.90R VSB 1/2
RALEIGH        PTCLDY    71  69  93 CALM      29.91R
$$

VAZ088>098-200900-
SOUTHEAST VIRGINIA

CITY           SKY/WX    TMP DP  RH WIND       PRES   REMARKS
NORFOLK        MOCLDY    75  70  84 NE6       29.88R
VIRGINIA BEACH CLEAR     74  71  91 NE5       29.87R
NORFOLK NAVAL  MOCLDY    76  71  85 NE8       29.90R
WEST POINT*    CLEAR     71  68  92 CALM      29.92R
NEWPORT NEWS   MOCLDY    74  69  85 NE3       29.89R
LANGLEY AFB    CLOUDY    74  74 100 NE9       29.88S
FORT EUSTIS    PTCLDY    72 N/A N/A NE2       29.88R
WILLIAMSBURG*  CLEAR     72  70  94 CALM      29.91R
FRANKLIN*        N/A     70 N/A N/A CALM      29.89R VSB 3/4
WAKEFIELD      MOCLDY    71  68  90 CALM      29.90R
$$

VAZ020-022-025-037-045-200900-
WESTERN AND SOUTHWEST VIRGINIA

CITY           SKY/WX    TMP DP  RH WIND       PRES   REMARKS
STAUNTON*      CLOUDY    68  66  94 CALM      29.96S FOG
HOT SPRINGS VA NOT AVBL
LYNCHBURG      CLOUDY    70  70 100 CALM      29.96R FOG
DANVILLE       CLOUDY    72  69  90 CALM      29.93R
MARTINSVILLE   CLOUDY    70  70  99 CALM      29.97S FOG
ROANOKE        MOCLDY    65  63  93 CALM      29.98S
BLACKSBURG     MOCLDY    66  66 100 CALM      30.02S FOG
DUBLIN*        FOG       66  66 100 E3        30.01S VSB 1/4
MARION*        PTCLDY    65  64  96 W3        30.04F FOG
HILLSVILLE*    FOG       64  64 100 S3        30.02F VSB 1/2
RICHLANDS*     FOG       68  66  94 S3        30.01S VSB<1/4
WISE*          FOG       64  64 100 SW5       30.03R VSB 1/4
ABINGDON*      CLOUDY    67  67 100 CALM      30.01R FOG
$$

MDZ021>025-VAZ099-100-200900-
SOUTHERN MARYLAND AND THE DELMARVA PENINSULA

CITY           SKY/WX    TMP DP  RH WIND       PRES   REMARKS
PATUXENT RIVER CLEAR     65  63  93 CALM      29.92R
BAY BRIDGE APT   N/A     68  64  88 CALM      29.93S
LEONARDTOWN    CLEAR     64  61  88 CALM      29.94S
DOVER          MOCLDY    65  65 100 N1        29.92R
GEORGETOWN     CLEAR     65  62  90 VRB5      29.93R
EASTON         CLEAR     65  65 100 CALM      29.97R
CAMBRIDGE      CLEAR     63  61  94 CALM      29.92R
SALISBURY      CLEAR     65  61  87 CALM      29.91S
OCEAN CITY     CLEAR     72  65  78 E7        29.91R
WALLOPS ISLAND CLEAR     70  66  87 NE3       29.91R
ACCOMACK*      FOG       63  61  94 NE5       29.90R VSB 3/4
$$

NCZ012>017-030>032-200900-
EASTERN NORTH CAROLINA

CITY           SKY/WX    TMP DP  RH WIND       PRES   REMARKS
ELIZABETH CITY CLOUDY    75  73  94 N8        29.87R
AHOSKIE*       CLEAR     69  67  95 CALM      29.89R
EDENTON*       CLEAR     70  69  97 N5        29.87S FOG
CURRITUCK*     PTCLDY    75  72  88 NE5       29.88R FOG
KILL DEVIL HLS PTCLDY    74  73  95 CALM      29.85R
MANTEO         PTCLDY    73  72  94 CALM      29.86S
CAPE HATTERAS  PTCLDY    76  74  93 E5        29.84S
GOLDSBORO      CLEAR     74  73  98 N2        29.87R
WASHINGTON     CLEAR     71  70  98 CALM      29.88R
GREENVILLE     CLEAR     72  72 100 CALM      29.90S FOG
NEW BERN       PTCLDY    75  72  88 CALM      29.88R
WILMINGTON     MOCLDY    75  73  93 W3        29.89R
$$

VAZ048-200900-
ELSEWHERE

CITY           SKY/WX    TMP DP  RH WIND       PRES   REMARKS
HARRISBURG PA  MOCLDY    70  65  84 SE3       29.91F
BALTIMORE      PTCLDY    66  64  93 CALM      29.93R
ANNAPOLIS      CLEAR     71  66  84 NW3       29.92S
ANDREWS AFB    CLEAR     66  66  99 SE5       29.92S
WILMINGTON DE  MOCLDY    72  67  84 CALM      29.94S
PHILADELPHIA   CLOUDY    73  64  73 CALM      29.95R
WILDWOOD NJ*   CLEAR     64  61  88 CALM      29.94R
ATLANTIC CITY  PTCLDY    63  62  97 CALM      29.93S
HENDERSON NC   CLOUDY    71  69  95 CALM      29.93R FOG
GREENSBORO     PTCLDY    72  71  97 N5        29.93R
ROCKY MOUNT    FOG       70  69  97 CALM      29.90R VSB 1/2
FAYETTEVILLE   PTCLDY    73  72  96 SW3       29.89R
CHARLOTTE      MOCLDY    70  68  93 N3        29.93S
$$

VAZ100-200900-
MARINE

STATION/POSITION TIME  TEMP    WIND        PRES    WAVE   SWELL
                       AIR SEA DIR/SP/G            HT/PER HT/PER
                 (UTC) (F)     (DEG/KT/KT) (MB)    (FT/S) (FT/S)
44066 TX TWR #4  0800   72 72   70/ 10/ 12 1013.0S   2/ 9   2/ 9
CAPE MAY NJ      0800   69 79   CALM  /  1 1012.9R
LEWES DE         0800   72 74  100/  4/  5 1012.8R
15NM E FENWICK I 0800   74 74              1012.4S   4/ 6
OCEAN-CITY-INLET 0800   73 75   80/  7/  9 1012.4R
WACHAPREAGUE VA  0800   69 78  340/  3/  5 1012.2S
THOMAS POINT MD  0800   73 77  120/  7/  8 1013.7F
GOOSES REEF MD   0800   74     110/  4/  6 1013.7S
COVE POINT MD    0800   72      70/  5/  7 1013.0S
SOLOMONS ISLAND  0800      80                N/A
BISHOPS HEAD MD  0800   72 77   40/  5/  7 1012.6R
PINEY POINT MD   0800           50/  5/  5   N/A
POTOMAC MD       0800   75      80/  8/  8 1012.1R
CAMBRIDGE MD     0800   70 78  350/  2/  3 1013.1R
LEWISETTA VA     0800   75 78   70/  6/  9 1012.5S
RAPPAHANNOCK LGT 0800           30/ 10/ 11 1012.9R
STINGRAY PT      0800   76      70/  8/ 10 1013.0R
YORK RVR RNG VA  0800   76      70/  8/ 10 1011.7R
YORKTOWN VA      0800   75 80   40/  6/  7 1011.9R
JAMESTOWN VA     0800   71      70/  4/  4   N/A
DOMINION TERM VA 0800   75      20/  3/  4 1012.1R
KIPTOPEKE VA     0800      81   70/  2/  3   N/A
CHES BAY BRIDGE  0800   76 78   40/ 11/ 12 1011.2R
CAPE HENRY VA    0800   76      50/ 12/ 13 1010.5R
CHESAPEAKE LGHT  0700   76      50/ 14/ 14 1011.8F
WILLOUBY STN VA  0800   76      40/  8/  8 1010.9R
S CRANEY ISL VA  0800           20/  6/  7 1011.6R
CAPE HENRY BUOY  0800      76                N/A     4/ 6
1ST LANDING BUOY 0800   76      40/ 10/ 12 1011.4R
CAPE CHARLES BUO 0800      77                N/A     3/ 6   2/ 6
OFFSHORE WE BUOY 0800      77                N/A     4/ 6   2/ 6
64NM E OF VA BCH 0800   77 78   40/ 12/ 14 1010.4S   3/ 6   2/ 6
DUCK PIER NC     0800   77 78   30/  8/ 10 1010.3S
44056 DUCK FRF   0700                        N/A     2/ 6
OREGON INLET NC  0800   76 81  340/  2/  2 1010.7S
HATTERAS NC      0800   79 82   10/  6/  8 1010.8S
DIAMOND SHLS NC  0800   79     310/  6/  6 1010.4R   3/ 7   2/ 7
CAPE LOOKOUT NC  0700   79     340/  7/  8 1010.2F
$$



USA.gov is the U.S. government's official web portal to all federal, state and local government web resources and services.